Zurück zum Katalog

STARLINK-32766

AktivKommunikationVLEO
NORAD 62574·PAYLOAD·🇺🇸 United States

Gestartet Jan 10, 2025 von Cape Canaveral Space Force Station

Loading…

Nächste Überflüge (nächste 24 Stunden)

TLE

AktuellSource: CelesTrak SupGP

Epoche: Sep 14, 2026, 22:45 UTC

1 62574C 25006W   26257.94840278  .00010729  00000+0  38862-3 0  2576
2 62574  43.0032 303.7235 0001920 268.1848 230.1582 15.27571433    10

Verfolge STARLINK-32766 in Echtzeit mit AllMySat

Download on the App Store